Regional Weather Roundup
Issued by NWS Goodland, KS

Home | Current Version | Previous Version | Text Only | Print | Product List | Glossary Off
Versions: 1 2 3 4 5 6 7 8 9 10 11 12 13 14 15 16 17 18 19 20 21 22 23 24 25 26 27 28 29 30 31 32 33 34 35 36 37 38 39 40 41 42 43 44 45 46 47 48 49 50

000
ASUS43 KGLD 301759
RWRGLD

GOODLAND FORECAST AREA HOURLY WEATHER ROUNDUP
NATIONAL WEATHER SERVICE GOODLAND KS
1200 PM MDT WED JUL 30 2014

...OFFICIAL OBSERVATIONS...

CITY           SKY/WX    TMP DP  RH WIND       PRES   REMARKS
GOODLAND KS    CLOUDY    66  56  70 NE9       30.27S
HILL CITY KS   PTSUNNY   71  58  63 E7        30.20S
IMPERIAL NEB   CLOUDY    73  59  61 SE3       30.25F
MCCOOK NEB     CLOUDY    73  59  61 SE6       30.22F
AKRON CO       CLOUDY    62  58  86 SE10      30.31S
BURLINGTON CO  CLOUDY    64  56  75 E9        30.27F
LIMON CO       CLOUDY    59  56  89 E13       30.34R
$$

...UNOFFICIAL OBSERVATIONS...

CITY           SKY/WX    TMP DP  RH WIND       PRES   REMARKS
$$


USA.gov is the U.S. government's official web portal to all federal, state and local government web resources and services.